| time (UTC) | temp F | wind direction | speed knots | gust knots | rain 1hr in | rain 24hr in | rain mn in | humidity % | barometer mb |
| 20260508020051 | 56 | 228 | 3.5 | 7.0 | 0.00 | 0.00 | 0.00 | 56 | 1018.1 |
| 20260508014552 | 56 | 242 | 5.2 | 8.7 | 0.00 | 0.00 | 0.00 | 55 | 1018.2 |
| 20260508013052 | 57 | 221 | 2.6 | 7.0 | 0.00 | 0.00 | 0.00 | 59 | 1018.2 |
| 20260508011605 | 57 | 223 | 1.7 | 6.1 | 0.00 | 0.00 | 0.00 | 59 | 1018.4 |
| 20260508010054 | 58 | 184 | 3.5 | 7.0 | 0.00 | 0.00 | 0.00 | 58 | 1018.5 |
| 20260508004557 | 58 | 204 | 3.5 | 7.0 | 0.00 | 0.00 | 0.00 | 58 | 1018.6 |
| 20260508003052 | 58 | 213 | 2.6 | 7.0 | 0.00 | 0.00 | 0.00 | 62 | 1018.6 |
| 20260508001551 | 59 | 246 | 4.3 | 10.4 | 0.00 | 0.00 | 0.00 | 60 | 1018.6 |
| 20260508000053 | 60 | 255 | 4.3 | 8.7 | 0.00 | 0.00 | 0.00 | 50 | 1018.7 |
| 20260507234600 | 59 | 257 | 3.5 | 7.8 | 0.00 | 0.00 | 0.00 | 59 | 1018.9 |
| 20260507233052 | 60 | 207 | 2.6 | 10.4 | 0.00 | 0.00 | 0.00 | 55 | 1018.9 |
| 20260507231604 | 60 | 267 | 4.3 | 10.4 | 0.00 | 0.00 | 0.00 | 67 | 1018.9 |
| 20260507230059 | 60 | 242 | 4.3 | 10.4 | 0.00 | 0.00 | 0.00 | 69 | 1019.0 |
| 20260507224555 | 60 | 246 | 5.2 | 11.3 | 0.00 | 0.00 | 0.00 | 65 | 1019.1 |
| 20260507223058 | 60 | 219 | 2.6 | 8.7 | 0.00 | 0.00 | 0.00 | 67 | 1019.3 |
| 20260507221554 | 59 | 208 | 3.5 | 7.8 | 0.00 | 0.00 | 0.00 | 69 | 1019.2 |
| 20260507220059 | 59 | 196 | 4.3 | 7.0 | 0.00 | 0.00 | 0.00 | 72 | 1019.3 |
| 20260507214558 | 58 | 215 | 3.5 | 7.0 | 0.00 | 0.00 | 0.00 | 62 | 1019.4 |
| 20260507213052 | 58 | 216 | 3.5 | 8.7 | 0.00 | 0.00 | 0.00 | 67 | 1019.5 |
| 20260507211559 | 58 | 208 | 2.6 | 7.8 | 0.00 | 0.00 | 0.00 | 73 | 1019.5 |
| 20260507210056 | 57 | 0 | 3.5 | 10.4 | 0.00 | 0.00 | 0.00 | 70 | 1019.6 |
| 20260507204559 | 57 | 194 | 4.3 | 8.7 | 0.00 | 0.00 | 0.00 | 73 | 1019.6 |
| 20260507203100 | 58 | 187 | 3.5 | 6.1 | 0.00 | 0.00 | 0.00 | 70 | 1019.7 |
| 20260507201554 | 56 | 137 | 2.6 | 7.8 | 0.00 | 0.00 | 0.00 | 74 | 1019.7 |
| 20260507200054 | 57 | 179 | 2.6 | 9.6 | 0.00 | 0.00 | 0.00 | 64 | 1019.6 |
| 20260507194554 | 56 | 219 | 4.3 | 7.8 | 0.00 | 0.00 | 0.00 | 59 | 1019.7 |
| 20260507193100 | 55 | 188 | 1.7 | 7.0 | 0.00 | 0.00 | 0.00 | 67 | 1019.8 |
| 20260507191553 | 54 | 209 | 1.7 | 7.0 | 0.00 | 0.00 | 0.00 | 79 | 1019.7 |
| 20260507190052 | 54 | 119 | 2.6 | 6.1 | 0.00 | 0.00 | 0.00 | 82 | 1019.6 |
| 20260507184554 | 54 | 40 | 2.6 | 6.1 | 0.00 | 0.00 | 0.00 | 81 | 1019.7 |
| 20260507183058 | 53 | 115 | 0.9 | 6.1 | 0.00 | 0.00 | 0.00 | 83 | 1019.8 |
| 20260507181553 | 51 | 0 | 0.0 | 2.6 | 0.00 | 0.00 | 0.00 | 85 | 1019.7 |
| 20260507180053 | 51 | 105 | 1.7 | 7.0 | 0.00 | 0.00 | 0.00 | 85 | 1019.7 |
| 20260507174605 | 52 | 0 | 0.0 | 6.1 | 0.00 | 0.00 | 0.00 | 83 | 1019.6 |
| 20260507173101 | 51 | 146 | 0.9 | 6.1 | 0.00 | 0.00 | 0.00 | 85 | 1019.6 |
| 20260507171612 | 50 | 55 | 2.6 | 6.1 | 0.00 | 0.00 | 0.00 | 85 | 1019.6 |
| 20260507170058 | 48 | 74 | 2.6 | 7.0 | 0.00 | 0.00 | 0.00 | 88 | 1019.5 |
| 20260507164607 | 48 | 173 | 2.6 | 6.1 | 0.00 | 0.00 | 0.00 | 87 | 1019.4 |
| 20260507163054 | 46 | 141 | 2.6 | 7.0 | 0.00 | 0.00 | 0.00 | 92 | 1019.4 |
| 20260507161603 | 46 | 140 | 3.5 | 7.0 | 0.00 | 0.00 | 0.00 | 91 | 1019.4 |
| 20260507160100 | 45 | 189 | 2.6 | 7.0 | 0.00 | 0.00 | 0.00 | 94 | 1019.3 |
| 20260507154558 | 44 | 170 | 1.7 | 5.2 | 0.00 | 0.00 | 0.00 | 95 | 1019.4 |
| 20260507153055 | 44 | 173 | 2.6 | 6.1 | 0.00 | 0.00 | 0.00 | 97 | 1019.3 |
| 20260507151556 | 43 | 126 | 1.7 | 5.2 | 0.00 | 0.00 | 0.00 | 97 | 1019.4 |
| 20260507144557 | 43 | 150 | 1.7 | 6.1 | 0.00 | 0.00 | 0.00 | 99 | 1019.2 |
| 20260507143103 | 42 | 159 | 1.7 | 5.2 | 0.00 | 0.00 | 0.00 | 99 | 1019.2 |
| 20260507141556 | 42 | 173 | 3.5 | 7.0 | 0.00 | 0.00 | 0.00 | 99 | 1019.0 |
| 20260507140054 | 42 | 186 | 3.5 | 6.1 | 0.00 | 0.00 | 0.00 | 99 | 1018.9 |
| 20260507134555 | 42 | 165 | 1.7 | 4.3 | 0.00 | 0.00 | 0.00 | 99 | 1018.8 |
| 20260507133057 | 42 | 186 | 1.7 | 4.3 | 0.00 | 0.00 | 0.00 | 99 | 1018.9 |
| 20260507131558 | 42 | 0 | 0.9 | 6.1 | 0.00 | 0.00 | 0.00 | 99 | 1018.9 |
| 20260507130055 | 42 | 177 | 0.9 | 4.3 | 0.00 | 0.00 | 0.00 | 99 | 1019.0 |
| 20260507124555 | 42 | 182 | 1.7 | 6.1 | 0.00 | 0.00 | 0.00 | 99 | 1019.0 |
| 20260507123051 | 42 | 179 | 0.9 | 5.2 | 0.00 | 0.00 | 0.00 | 99 | 1019.0 |
| 20260507121556 | 42 | 191 | 2.6 | 6.1 | 0.00 | 0.00 | 0.00 | 99 | 1019.2 |
| 20260507120055 | 43 | 163 | 0.0 | 5.2 | 0.00 | 0.00 | 0.00 | 99 | 1019.3 |
| 20260507114559 | 43 | 198 | 0.9 | 5.2 | 0.00 | 0.00 | 0.00 | 99 | 1019.4 |
| 20260507113052 | 43 | 198 | 2.6 | 4.3 | 0.00 | 0.00 | 0.00 | 99 | 1019.5 |
| 20260507111555 | 43 | 203 | 1.7 | 5.2 | 0.00 | 0.00 | 0.00 | 99 | 1019.6 |
| 20260507110107 | 44 | 0 | 1.7 | 7.8 | 0.00 | 0.00 | 0.00 | 99 | 1019.7 |
| 20260507104550 | 44 | 212 | 1.7 | 7.0 | 0.00 | 0.00 | 0.00 | 99 | 1019.8 |
| 20260507103056 | 44 | 217 | 0.9 | 4.3 | 0.00 | 0.00 | 0.00 | 99 | 1019.8 |
| 20260507101558 | 44 | 165 | 2.6 | 6.1 | 0.00 | 0.00 | 0.00 | 99 | 1019.9 |
| 20260507100055 | 45 | 187 | 2.6 | 5.2 | 0.00 | 0.00 | 0.00 | 99 | 1020.0 |
| 20260507094610 | 45 | 197 | 1.7 | 6.1 | 0.00 | 0.00 | 0.00 | 99 | 1020.2 |
| 20260507093100 | 45 | 198 | 1.7 | 3.5 | 0.00 | 0.00 | 0.00 | 99 | 1020.4 |
| 20260507091635 | 45 | 198 | 0.0 | 5.2 | 0.00 | 0.00 | 0.00 | 99 | 1020.5 |
| 20260507090106 | 45 | 208 | 1.7 | 5.2 | 0.00 | 0.00 | 0.00 | 99 | 1020.7 |
| 20260507084555 | 45 | 192 | 0.9 | 6.1 | 0.00 | 0.00 | 0.00 | 99 | 1020.7 |
| 20260507083050 | 45 | 216 | 3.5 | 8.7 | 0.00 | 0.00 | 0.00 | 99 | 1020.6 |
| 20260507081555 | 46 | 209 | 2.6 | 6.1 | 0.00 | 0.00 | 0.00 | 99 | 1020.7 |
| 20260507080056 | 46 | 219 | 1.7 | 3.5 | 0.00 | 0.00 | 0.00 | 99 | 1020.7 |
| 20260507074553 | 47 | 173 | 3.5 | 7.0 | 0.00 | 0.00 | 0.00 | 99 | 1020.6 |
| 20260507073053 | 47 | 184 | 2.6 | 4.3 | 0.00 | 0.00 | 0.00 | 99 | 1020.7 |
| 20260507071554 | 46 | 188 | 2.6 | 5.2 | 0.00 | 0.00 | 0.00 | 99 | 1020.7 |
| 20260507070103 | 47 | 205 | 1.7 | 5.2 | 0.00 | 0.00 | 0.00 | 98 | 1020.8 |
| 20260507064553 | 47 | 197 | 2.6 | 5.2 | 0.00 | 0.00 | 0.00 | 98 | 1020.9 |
| 20260507063054 | 48 | 194 | 3.5 | 5.2 | 0.00 | 0.00 | 0.00 | 98 | 1021.0 |
| 20260507061558 | 48 | 0 | 0.9 | 5.2 | 0.00 | 0.00 | 0.00 | 98 | 1021.1 |
| 20260507060106 | 48 | 213 | 1.7 | 4.3 | 0.00 | 0.00 | 0.00 | 97 | 1021.1 |
| 20260507054558 | 48 | 239 | 1.7 | 4.3 | 0.00 | 0.00 | 0.00 | 97 | 1021.3 |
| 20260507053054 | 48 | 188 | 2.6 | 4.3 | 0.00 | 0.00 | 0.00 | 95 | 1021.4 |
| 20260507051550 | 48 | 0 | 0.0 | 2.6 | 0.00 | 0.00 | 0.00 | 91 | 1021.5 |
| 20260507050054 | 48 | 325 | 0.9 | 2.6 | 0.00 | 0.00 | 0.00 | 92 | 1021.6 |
| 20260507044552 | 48 | 0 | 0.0 | 0.9 | 0.00 | 0.00 | 0.00 | 98 | 1021.6 |
| 20260507043055 | 48 | 325 | 0.9 | 3.5 | 0.00 | 0.00 | 0.00 | 99 | 1021.7 |
| 20260507041553 | 48 | 325 | 2.6 | 6.1 | 0.00 | 0.00 | 0.00 | 98 | 1021.7 |
| 20260507040056 | 48 | 323 | 6.1 | 8.7 | 0.00 | 0.00 | 0.00 | 98 | 1021.6 |
| 20260507034559 | 49 | 17 | 6.1 | 7.8 | 0.00 | 0.00 | 0.00 | 98 | 1021.4 |
| 20260507033052 | 49 | 13 | 6.1 | 7.8 | 0.00 | 0.00 | 0.00 | 97 | 1021.3 |
| 20260507031549 | 49 | 24 | 6.1 | 7.8 | 0.00 | 0.00 | 0.00 | 95 | 1021.1 |
| 20260507030055 | 50 | 5 | 6.1 | 7.8 | 0.00 | 0.00 | 0.00 | 94 | 1021.1 |
| 20260507024559 | 50 | 324 | 4.3 | 9.6 | 0.00 | 0.00 | 0.00 | 93 | 1021.1 |
| 20260507023055 | 50 | 324 | 5.2 | 8.7 | 0.00 | 0.00 | 0.00 | 92 | 1021.1 |
| 20260507021557 | 51 | 324 | 4.3 | 7.0 | 0.00 | 0.00 | 0.00 | 91 | 1021.2 |